sat.trackr.live / text

‹ back to catalog

STARLINK-30561

NORAD 58032 · 2023-156E

PAYLOAD ACTIVE UNKNOWN

§ Identity

Operator
Country
US
Launch date
2023-10-09
Launch site
AFWTR
Launch vehicle
Mass (kg)
RCS (m²)

Purposes: comms

External: N2YO · Heavens-Above · Gunter

§ Orbital elements

Epoch: 2026-05-25T02:46:58.784160Z

Period
94.11 min
Inclination
53.1610°
Eccentricity
0.0001298
Mean motion
15.30198761 rev/d
Perigee alt
474.3 km
Apogee alt
476.1 km
Semi-major
6,853.4 km
B*
2.8920e-5
RAAN
83.4568°
Arg perigee
86.9527°
Mean anomaly
273.1622°
Rev number
14,801

§ Raw data

STARLINK-305611 58032U 23156E   26145.11595815  .00000497  00000+0  28920-4 0  99922 58032  53.1610  83.4568 0001298  86.9527 273.1622 15.30198761148015

JSON: /api/v1/satellites/58032 · /tle

For live sub-satellite position, see the globe view (requires WebGL).

§ Visibility from observer

Set your observer location to see the next 7 days of passes ≥ 10°. The values pass through the URL so the page stays shareable.

No JS? Fill the form by hand. The geolocation button needs JavaScript.